Home > Weather > Jyväskylä > Past weeks

Flag for Finland Past Weather in Jyväskylä, Finland — Yesterday and Last 2 Weeks

Now
54 °F

Passing clouds.


Feels Like: 54 °F
Forecast: 54 / 72 °F
Wind: No wind

Location: Jyvaskyla Airport

Current Time: Jun 29, 2016 at 3:18:58 AM

Latest Report: Jun 29, 2016 at 2:20 AM


Visibility: N/A

Pressure: 29.89 "Hg

Humidity: 100%

Dew Point: 54 °F

Location of JyväskyläLocation

Past Weather in Jyväskylä — Graph

°F

Jyväskylä Temperature Yesterday

Maximum temperature yesterday: 73 °F (at 3:50 PM)
Minimum temperature yesterday: 55 °F (at 3:20 AM)
Average temperature yesterday: 63 °F

High & Low Weather Summary for the Past Weeks

 TemperatureHumidityPressure
High75 °F (Jun 21, 5:20 PM)100% (Jun 16, 8:50 PM)30.18 "Hg (Jun 16, 8:50 PM)
Low43 °F (Jun 15, 3:50 AM)25% (Jun 21, 6:20 PM)29.30 "Hg (Jun 18, 11:20 AM)
Average62 °F71%29.86 "Hg
* Reported Jun 14 1:20 AM — Jun 29 1:50 AM, Jyväskylä, Weather by CustomWeather, © 2016

Note: Actual official high and low records may vary slightly from our data, if they occured in-between our weather recording intervals... More about our weather records

Advertising

Jyväskylä Weather History for the Previous 24 Hours

Scroll right to see more
 ConditionsComfort  
Time TempWeatherWind HumidityBarometerVisibility
1:50 AM
Wed, Jun 29
55 °FPassing clouds.No wind94%29.89 "HgN/A
1:20 AM55 °FClear.No wind88%29.89 "Hg10 mi
12:50 AM57 °FClear.No wind88%29.89 "Hg10 mi
12:20 AM57 °FClear.No wind88%29.89 "Hg10 mi
11:50 PM
Tue, Jun 28
61 °FSunny.2 mph83%29.89 "Hg10 mi
11:20 PM61 °FSunny.1 mph83%29.89 "Hg10 mi
10:50 PM63 °FSunny.1 mph77%29.89 "Hg10 mi
10:20 PM64 °FSunny.No wind68%29.89 "Hg10 mi
9:50 PM64 °FSunny.1 mph68%29.89 "Hg10 mi
9:20 PM68 °FSunny.2 mph56%29.86 "Hg10 mi
8:50 PM70 °FSunny.2 mph53%29.86 "Hg10 mi
8:20 PM70 °FPassing clouds.3 mph53%29.86 "HgN/A
7:50 PM70 °FPassing clouds.5 mph50%29.86 "HgN/A
7:20 PM72 °FPassing clouds.7 mph44%29.86 "HgN/A
6:50 PM72 °FPassing clouds.7 mph44%29.86 "HgN/A
6:20 PM72 °FPassing clouds.5 mph47%29.86 "HgN/A
5:50 PM72 °FSunny.9 mph41%29.86 "Hg10 mi
5:20 PM73 °FPassing clouds.7 mph44%29.86 "HgN/A
4:50 PM72 °FPassing clouds.9 mph47%29.86 "HgN/A
4:20 PM73 °FPassing clouds.7 mph41%29.86 "HgN/A
3:50 PM73 °FPassing clouds.6 mph38%29.86 "HgN/A
3:20 PM72 °FSunny.3 mph47%29.86 "Hg10 mi
2:50 PM72 °FPassing clouds.5 mph50%29.86 "HgN/A
2:20 PM68 °FScattered clouds.5 mph64%29.86 "HgN/A
1:50 PM68 °FScattered clouds.1 mph64%29.86 "HgN/A
1:20 PM68 °FBroken clouds.3 mph64%29.86 "HgN/A
12:50 PM68 °FScattered clouds.3 mph64%29.86 "HgN/A
12:20 PM66 °FScattered clouds.5 mph68%29.86 "HgN/A
11:50 AM64 °FScattered clouds.2 mph73%29.86 "HgN/A
11:20 AM64 °FScattered clouds.3 mph73%29.86 "HgN/A
10:50 AM61 °FScattered clouds.1 mph83%29.86 "HgN/A
10:20 AM61 °FBroken clouds.1 mph83%29.86 "HgN/A
9:50 AM59 °FPartly sunny.2 mph88%29.86 "HgN/A
9:20 AM59 °FPartly sunny.2 mph94%29.86 "HgN/A
8:50 AM57 °FPartly sunny.No wind94%29.83 "HgN/A
8:20 AM57 °FPartly sunny.2 mph94%29.83 "HgN/A
7:50 AM57 °FLow clouds.3 mph94%29.83 "HgN/A
7:20 AM55 °FLow clouds.5 mph100%29.83 "Hg4 mi
6:50 AM55 °FFog.5 mph100%29.83 "Hg2 mi
6:20 AM55 °FLight rain. Low clouds.3 mph100%29.83 "Hg4 mi
5:50 AM55 °FLight rain. Low clouds.5 mph100%29.83 "Hg6 mi
5:20 AM55 °FRain. Low clouds.5 mph100%29.83 "Hg4 mi
4:50 AM55 °FLight rain. Low clouds.5 mph94%29.83 "Hg4 mi
4:20 AM55 °FLight rain. Low clouds.5 mph100%29.83 "Hg4 mi
3:50 AM55 °FLight rain. Low clouds.6 mph100%29.83 "Hg6 mi
3:20 AM55 °FRain. Low clouds.7 mph100%29.86 "Hg4 mi
Weather by CustomWeather, © 2016

See weather overviewHow to use our weather pages